"Time","Value","Approval","myLocation"
"2023-05-06 00:00",18.7883859471955,"Approved","OW405"
"2023-05-06 01:00",18.7883833203939,"Approved","OW405"
"2023-05-06 02:00",18.7883806935924,"Approved","OW405"
"2023-05-06 03:00",18.7883780667908,"Approved","OW405"
"2023-05-06 04:00",18.7893754399893,"Approved","OW405"
"2023-05-06 05:00",18.7883728131877,"Approved","OW405"
"2023-05-06 06:00",18.7883701863862,"Approved","OW405"
"2023-05-06 07:00",18.7883675595846,"Approved","OW405"
"2023-05-06 08:00",18.7883649327831,"Approved","OW405"
"2023-05-06 09:00",18.7883623059815,"Approved","OW405"
"2023-05-06 10:00",18.78835967918,"Approved","OW405"
"2023-05-06 11:00",18.7883570523784,"Approved","OW405"
"2023-05-06 12:00",18.7883544255769,"Approved","OW405"
"2023-05-06 13:00",18.7883517987753,"Approved","OW405"
"2023-05-06 14:00",18.7883491719738,"Approved","OW405"
"2023-05-06 15:00",18.7883465451722,"Approved","OW405"
"2023-05-06 16:00",18.7883439183707,"Approved","OW405"
"2023-05-06 17:00",18.7883412915691,"Approved","OW405"
"2023-05-06 18:00",18.7873386647676,"Approved","OW405"
"2023-05-06 19:00",18.786336037966,"Approved","OW405"
"2023-05-06 20:00",18.7863334111645,"Approved","OW405"
"2023-05-06 21:00",18.7853307843629,"Approved","OW405"
"2023-05-06 22:00",18.7833281575614,"Approved","OW405"
"2023-05-06 23:00",18.7833255307598,"Approved","OW405"
"2023-05-07 00:00",18.7833229039583,"Approved","OW405"
"2023-05-07 01:00",18.7823202771567,"Approved","OW405"
"2023-05-07 02:00",18.7813176503552,"Approved","OW405"
"2023-05-07 03:00",18.7813150235537,"Approved","OW405"
"2023-05-07 04:00",18.7813123967521,"Approved","OW405"
"2023-05-07 05:00",18.7803097699506,"Approved","OW405"
"2023-05-07 06:00",18.780307143149,"Approved","OW405"
"2023-05-07 07:00",18.7803045163475,"Approved","OW405"
"2023-05-07 08:00",18.7803018895459,"Approved","OW405"
"2023-05-07 09:00",18.7802992627444,"Approved","OW405"
"2023-05-07 10:00",18.7802966359428,"Approved","OW405"
"2023-05-07 11:00",18.7802940091413,"Approved","OW405"
"2023-05-07 12:00",18.7792913823397,"Approved","OW405"
"2023-05-07 13:00",18.7802887555382,"Approved","OW405"
"2023-05-07 14:00",18.7792861287366,"Approved","OW405"
"2023-05-07 15:00",18.7792835019351,"Approved","OW405"
"2023-05-07 16:00",18.7782808751335,"Approved","OW405"
"2023-05-07 17:00",18.776278248332,"Approved","OW405"
"2023-05-07 18:00",18.7752756215304,"Approved","OW405"
"2023-05-07 19:00",18.7742729947289,"Approved","OW405"
"2023-05-07 20:00",18.7732703679273,"Approved","OW405"
"2023-05-07 21:00",18.7732677411258,"Approved","OW405"
"2023-05-07 22:00",18.7742651143242,"Approved","OW405"
"2023-05-07 23:00",18.7742624875227,"Approved","OW405"
"2023-05-08 00:00",18.7752598607211,"Approved","OW405"
"2023-05-08 01:00",18.7752572339196,"Approved","OW405"
"2023-05-08 02:00",18.776254607118,"Approved","OW405"
"2023-05-08 03:00",18.7772519803165,"Approved","OW405"
"2023-05-08 04:00",18.778249353515,"Approved","OW405"
"2023-05-08 05:00",18.7782467267134,"Approved","OW405"
"2023-05-08 06:00",18.7782440999119,"Approved","OW405"
"2023-05-08 07:00",18.7792414731103,"Approved","OW405"
"2023-05-08 08:00",18.7792388463088,"Approved","OW405"
"2023-05-08 09:00",18.7792362195072,"Approved","OW405"
"2023-05-08 10:00",18.7802335927057,"Approved","OW405"
"2023-05-08 11:00",18.7802309659041,"Approved","OW405"
"2023-05-08 12:00",18.7802283391026,"Approved","OW405"
"2023-05-08 13:00",18.780225712301,"Approved","OW405"
"2023-05-08 14:00",18.7802230854995,"Approved","OW405"
"2023-05-08 15:00",18.7812204586979,"Approved","OW405"
"2023-05-08 16:00",18.7802178318964,"Approved","OW405"
"2023-05-08 17:00",18.7802152050948,"Approved","OW405"
"2023-05-08 18:00",18.7782125782933,"Approved","OW405"
"2023-05-08 19:00",18.7772099514917,"Approved","OW405"
"2023-05-08 20:00",18.7752073246902,"Approved","OW405"
"2023-05-08 21:00",18.7752046978886,"Approved","OW405"
"2023-05-08 22:00",18.7782020710871,"Approved","OW405"
"2023-05-08 23:00",18.7801994442855,"Approved","OW405"
"2023-05-09 00:00",18.779196817484,"Approved","OW405"
"2023-05-09 01:00",18.7761941906824,"Approved","OW405"
"2023-05-09 02:00",18.7771915638809,"Approved","OW405"
"2023-05-09 03:00",18.7791889370793,"Approved","OW405"
"2023-05-09 04:00",18.7801863102778,"Approved","OW405"
"2023-05-09 05:00",18.7811836834763,"Approved","OW405"
"2023-05-09 06:00",18.7821810566747,"Approved","OW405"
"2023-05-09 07:00",18.7821784298732,"Approved","OW405"
"2023-05-09 08:00",18.7821758030716,"Approved","OW405"
"2023-05-09 09:00",18.7831731762701,"Approved","OW405"
"2023-05-09 10:00",18.7831705494685,"Approved","OW405"
"2023-05-09 11:00",18.783167922667,"Approved","OW405"
"2023-05-09 12:00",18.7841652958654,"Approved","OW405"
"2023-05-09 13:00",18.7841626690639,"Approved","OW405"
"2023-05-09 14:00",18.7841600422623,"Approved","OW405"
"2023-05-09 15:00",18.7841574154608,"Approved","OW405"
"2023-05-09 16:00",18.7821547886592,"Approved","OW405"
"2023-05-09 17:00",18.7811521618577,"Approved","OW405"
"2023-05-09 18:00",18.7811495350561,"Approved","OW405"
"2023-05-09 19:00",18.7801469082546,"Approved","OW405"
"2023-05-09 20:00",18.778144281453,"Approved","OW405"
"2023-05-09 21:00",18.7781416546515,"Approved","OW405"
"2023-05-09 22:00",18.7781390278499,"Approved","OW405"
"2023-05-09 23:00",18.7781364010484,"Approved","OW405"
"2023-05-10 00:00",18.7791337742468,"Approved","OW405"
"2023-05-10 01:00",18.7791311474453,"Approved","OW405"
"2023-05-10 02:00",18.7811285206437,"Approved","OW405"
"2023-05-10 03:00",18.7821258938422,"Approved","OW405"
"2023-05-10 04:00",18.7831232670406,"Approved","OW405"
"2023-05-10 05:00",18.7841206402391,"Approved","OW405"
"2023-05-10 06:00",18.7841180134375,"Approved","OW405"
"2023-05-10 07:00",18.785115386636,"Approved","OW405"
"2023-05-10 08:00",18.7851127598345,"Approved","OW405"
"2023-05-10 09:00",18.7851101330329,"Approved","OW405"
"2023-05-10 10:00",18.7861075062314,"Approved","OW405"
"2023-05-10 11:00",18.7861048794298,"Approved","OW405"
"2023-05-10 12:00",18.7861022526283,"Approved","OW405"
"2023-05-10 13:00",18.7860996258267,"Approved","OW405"
"2023-05-10 14:00",18.7860969990252,"Approved","OW405"
"2023-05-10 15:00",18.7860943722236,"Approved","OW405"
"2023-05-10 16:00",18.7850917454221,"Approved","OW405"
"2023-05-10 17:00",18.7830891186205,"Approved","OW405"
"2023-05-10 18:00",18.781086491819,"Approved","OW405"
"2023-05-10 19:00",18.7800838650174,"Approved","OW405"
"2023-05-10 20:00",18.7780812382159,"Approved","OW405"
"2023-05-10 21:00",18.7780786114143,"Approved","OW405"
"2023-05-10 22:00",18.7790759846128,"Approved","OW405"
"2023-05-10 23:00",18.7810733578112,"Approved","OW405"
"2023-05-11 00:00",18.7810707310097,"Approved","OW405"
"2023-05-11 01:00",18.7820681042081,"Approved","OW405"
"2023-05-11 02:00",18.7830654774066,"Approved","OW405"
"2023-05-11 03:00",18.783062850605,"Approved","OW405"
"2023-05-11 04:00",18.7840602238035,"Approved","OW405"
"2023-05-11 05:00",18.7850575970019,"Approved","OW405"
"2023-05-11 06:00",18.7850549702004,"Approved","OW405"
"2023-05-11 07:00",18.7860523433988,"Approved","OW405"
"2023-05-11 08:00",18.7860497165973,"Approved","OW405"
"2023-05-11 09:00",18.7860470897958,"Approved","OW405"
"2023-05-11 10:00",18.7860444629942,"Approved","OW405"
"2023-05-11 11:00",18.7860418361927,"Approved","OW405"
"2023-05-11 12:00",18.7860392093911,"Approved","OW405"
"2023-05-11 13:00",18.7860365825896,"Approved","OW405"
"2023-05-11 14:00",18.787033955788,"Approved","OW405"
"2023-05-11 15:00",18.7860313289865,"Approved","OW405"
"2023-05-11 16:00",18.7840287021849,"Approved","OW405"
"2023-05-11 17:00",18.7830260753834,"Approved","OW405"
"2023-05-11 18:00",18.7810234485818,"Approved","OW405"
"2023-05-11 19:00",18.7790208217803,"Approved","OW405"
"2023-05-11 20:00",18.7780181949787,"Approved","OW405"
"2023-05-11 21:00",18.7770155681772,"Approved","OW405"
"2023-05-11 22:00",18.7760129413756,"Approved","OW405"
"2023-05-11 23:00",18.7770103145741,"Approved","OW405"
"2023-05-12 00:00",18.7790076877725,"Approved","OW405"
"2023-05-12 01:00",18.779005060971,"Approved","OW405"
"2023-05-12 02:00",18.7810024341694,"Approved","OW405"
"2023-05-12 03:00",18.7819998073679,"Approved","OW405"
"2023-05-12 04:00",18.7829971805663,"Approved","OW405"
"2023-05-12 05:00",18.7849945537648,"Approved","OW405"
"2023-05-12 06:00",18.7849919269632,"Approved","OW405"
"2023-05-12 07:00",18.7859893001617,"Approved","OW405"
"2023-05-12 08:00",18.7859866733601,"Approved","OW405"
"2023-05-12 09:00",18.7859840465586,"Approved","OW405"
"2023-05-12 10:00",18.7859814197571,"Approved","OW405"
"2023-05-12 11:00",18.7859787929555,"Approved","OW405"
"2023-05-12 12:00",18.786976166154,"Approved","OW405"
"2023-05-12 13:00",18.7869735393524,"Approved","OW405"
"2023-05-12 14:00",18.7869709125509,"Approved","OW405"
"2023-05-12 15:00",18.7859682857493,"Approved","OW405"
"2023-05-12 16:00",18.7839656589478,"Approved","OW405"
"2023-05-12 17:00",18.7829630321462,"Approved","OW405"
"2023-05-12 18:00",18.7819604053447,"Approved","OW405"
"2023-05-12 19:00",18.7799577785431,"Approved","OW405"
"2023-05-12 20:00",18.7789551517416,"Approved","OW405"
"2023-05-12 21:00",18.77695252494,"Approved","OW405"
"2023-05-12 22:00",18.7749498981385,"Approved","OW405"
"2023-05-12 23:00",18.7749472713369,"Approved","OW405"
"2023-05-13 00:00",18.7749446445354,"Approved","OW405"
"2023-05-13 01:00",18.7749420177338,"Approved","OW405"
"2023-05-13 02:00",18.7769393909323,"Approved","OW405"
"2023-05-13 03:00",18.7799367641307,"Approved","OW405"
"2023-05-13 04:00",18.7829341373292,"Approved","OW405"
"2023-05-13 05:00",18.7849315105276,"Approved","OW405"
"2023-05-13 06:00",18.7859288837261,"Approved","OW405"
"2023-05-13 07:00",18.7859262569245,"Approved","OW405"
"2023-05-13 08:00",18.786923630123,"Approved","OW405"
"2023-05-13 09:00",18.7869210033214,"Approved","OW405"
"2023-05-13 10:00",18.7879183765199,"Approved","OW405"
"2023-05-13 11:00",18.7879157497183,"Approved","OW405"
"2023-05-13 12:00",18.7879131229168,"Approved","OW405"
"2023-05-13 13:00",18.7889104961152,"Approved","OW405"
"2023-05-13 14:00",18.7889078693137,"Approved","OW405"
"2023-05-13 15:00",18.7869052425122,"Approved","OW405"
"2023-05-13 16:00",18.7849026157106,"Approved","OW405"
"2023-05-13 17:00",18.7838999889091,"Approved","OW405"
"2023-05-13 18:00",18.7828973621075,"Approved","OW405"
"2023-05-13 19:00",18.781894735306,"Approved","OW405"
"2023-05-13 20:00",18.7798921085044,"Approved","OW405"
"2023-05-13 21:00",18.7788894817029,"Approved","OW405"
"2023-05-13 22:00",18.7758868549013,"Approved","OW405"
"2023-05-13 23:00",18.7748842280998,"Approved","OW405"
"2023-05-14 00:00",18.7728816012982,"Approved","OW405"
"2023-05-14 01:00",18.7718789744967,"Approved","OW405"
"2023-05-14 02:00",18.7748763476951,"Approved","OW405"
"2023-05-14 03:00",18.7788737208936,"Approved","OW405"
"2023-05-14 04:00",18.782871094092,"Approved","OW405"
"2023-05-14 05:00",18.7848684672905,"Approved","OW405"
"2023-05-14 06:00",18.7858658404889,"Approved","OW405"
"2023-05-14 07:00",18.7868632136874,"Approved","OW405"
"2023-05-14 08:00",18.7878605868858,"Approved","OW405"
"2023-05-14 09:00",18.7878579600843,"Approved","OW405"
"2023-05-14 10:00",18.7888553332827,"Approved","OW405"
"2023-05-14 11:00",18.7888527064812,"Approved","OW405"
"2023-05-14 12:00",18.7888500796796,"Approved","OW405"
"2023-05-14 13:00",18.7888474528781,"Approved","OW405"
"2023-05-14 14:00",18.7888448260765,"Approved","OW405"
"2023-05-14 15:00",18.787842199275,"Approved","OW405"
"2023-05-14 16:00",18.7858395724735,"Approved","OW405"
"2023-05-14 17:00",18.7828369456719,"Approved","OW405"
"2023-05-14 18:00",18.7808343188704,"Approved","OW405"
"2023-05-14 19:00",18.7798316920688,"Approved","OW405"
"2023-05-14 20:00",18.7778290652673,"Approved","OW405"
"2023-05-14 21:00",18.7758264384657,"Approved","OW405"
"2023-05-14 22:00",18.7748238116642,"Approved","OW405"
"2023-05-14 23:00",18.7738211848626,"Approved","OW405"
"2023-05-15 00:00",18.7728185580611,"Approved","OW405"
"2023-05-15 01:00",18.7728159312595,"Approved","OW405"
"2023-05-15 02:00",18.773813304458,"Approved","OW405"
"2023-05-15 03:00",18.7778106776564,"Approved","OW405"
"2023-05-15 04:00",18.7818080508549,"Approved","OW405"
"2023-05-15 05:00",18.7838054240533,"Approved","OW405"
"2023-05-15 06:00",18.7848027972518,"Approved","OW405"
"2023-05-15 07:00",18.7858001704502,"Approved","OW405"
"2023-05-15 08:00",18.7867975436487,"Approved","OW405"
"2023-05-15 09:00",18.7867949168471,"Approved","OW405"
"2023-05-15 10:00",18.7877922900456,"Approved","OW405"
"2023-05-15 11:00",18.787789663244,"Approved","OW405"
"2023-05-15 12:00",18.7877870364425,"Approved","OW405"
"2023-05-15 13:00",18.7887844096409,"Approved","OW405"
"2023-05-15 14:00",18.7887817828394,"Approved","OW405"
"2023-05-15 15:00",18.7867791560378,"Approved","OW405"
"2023-05-15 16:00",18.7837765292363,"Approved","OW405"
"2023-05-15 17:00",18.7817739024348,"Approved","OW405"
"2023-05-15 18:00",18.7797712756332,"Approved","OW405"
"2023-05-15 19:00",18.7777686488317,"Approved","OW405"
"2023-05-15 20:00",18.7757660220301,"Approved","OW405"
"2023-05-15 21:00",18.7747633952286,"Approved","OW405"
"2023-05-15 22:00",18.775760768427,"Approved","OW405"
"2023-05-15 23:00",18.7757581416255,"Approved","OW405"
"2023-05-16 00:00",18.7767555148239,"Approved","OW405"
"2023-05-16 01:00",18.7787528880224,"Approved","OW405"
"2023-05-16 02:00",18.7797502612208,"Approved","OW405"
"2023-05-16 03:00",18.7807476344193,"Approved","OW405"
"2023-05-16 04:00",18.7827450076177,"Approved","OW405"
"2023-05-16 05:00",18.7837423808162,"Approved","OW405"
"2023-05-16 06:00",18.7847397540146,"Approved","OW405"
"2023-05-16 07:00",18.7857371272131,"Approved","OW405"
"2023-05-16 08:00",18.7867345004115,"Approved","OW405"
"2023-05-16 09:00",18.78773187361,"Approved","OW405"
"2023-05-16 10:00",18.7877292468084,"Approved","OW405"
"2023-05-16 11:00",18.7877266200069,"Approved","OW405"
"2023-05-16 12:00",18.7877239932053,"Approved","OW405"
"2023-05-16 13:00",18.7887213664038,"Approved","OW405"
"2023-05-16 14:00",18.7877187396022,"Approved","OW405"
"2023-05-16 15:00",18.7857161128007,"Approved","OW405"
"2023-05-16 16:00",18.7837134859991,"Approved","OW405"
"2023-05-16 17:00",18.7827108591976,"Approved","OW405"
"2023-05-16 18:00",18.7817082323961,"Approved","OW405"
"2023-05-16 19:00",18.7807056055945,"Approved","OW405"
"2023-05-16 20:00",18.780702978793,"Approved","OW405"
"2023-05-16 21:00",18.7797003519914,"Approved","OW405"
"2023-05-16 22:00",18.7796977251899,"Approved","OW405"
"2023-05-16 23:00",18.7806950983883,"Approved","OW405"
"2023-05-17 00:00",18.7816924715868,"Approved","OW405"
"2023-05-17 01:00",18.7826898447852,"Approved","OW405"
"2023-05-17 02:00",18.7836872179837,"Approved","OW405"
"2023-05-17 03:00",18.7846845911821,"Approved","OW405"
"2023-05-17 04:00",18.7846819643806,"Approved","OW405"
"2023-05-17 05:00",18.785679337579,"Approved","OW405"
"2023-05-17 06:00",18.7866767107775,"Approved","OW405"
"2023-05-17 07:00",18.7876740839759,"Approved","OW405"
"2023-05-17 08:00",18.7876714571744,"Approved","OW405"
"2023-05-17 09:00",18.7876688303728,"Approved","OW405"
"2023-05-17 10:00",18.7876662035713,"Approved","OW405"
"2023-05-17 11:00",18.7886635767697,"Approved","OW405"
"2023-05-17 12:00",18.7886609499682,"Approved","OW405"
"2023-05-17 13:00",18.7886583231666,"Approved","OW405"
"2023-05-17 14:00",18.7896556963651,"Approved","OW405"
"2023-05-17 15:00",18.7876530695635,"Approved","OW405"
"2023-05-17 16:00",18.785650442762,"Approved","OW405"
"2023-05-17 17:00",18.7846478159604,"Approved","OW405"
"2023-05-17 18:00",18.7816451891589,"Approved","OW405"
"2023-05-17 19:00",18.7806425623574,"Approved","OW405"
"2023-05-17 20:00",18.7796399355558,"Approved","OW405"
"2023-05-17 21:00",18.7786373087543,"Approved","OW405"
"2023-05-17 22:00",18.7776346819527,"Approved","OW405"
"2023-05-17 23:00",18.7776320551512,"Approved","OW405"
"2023-05-18 00:00",18.7776294283496,"Approved","OW405"
"2023-05-18 01:00",18.7776268015481,"Approved","OW405"
"2023-05-18 02:00",18.7796241747465,"Approved","OW405"
"2023-05-18 03:00",18.782621547945,"Approved","OW405"
"2023-05-18 04:00",18.7846189211434,"Approved","OW405"
"2023-05-18 05:00",18.7856162943419,"Approved","OW405"
"2023-05-18 06:00",18.7866136675403,"Approved","OW405"
"2023-05-18 07:00",18.7876110407388,"Approved","OW405"
"2023-05-18 08:00",18.7886084139372,"Approved","OW405"
"2023-05-18 09:00",18.7886057871357,"Approved","OW405"
"2023-05-18 10:00",18.7896031603341,"Approved","OW405"
"2023-05-18 11:00",18.7896005335326,"Approved","OW405"
"2023-05-18 12:00",18.789597906731,"Approved","OW405"
"2023-05-18 13:00",18.7895952799295,"Approved","OW405"
"2023-05-18 14:00",18.7895926531279,"Approved","OW405"
"2023-05-18 15:00",18.7885900263264,"Approved","OW405"
"2023-05-18 16:00",18.7855873995248,"Approved","OW405"
"2023-05-18 17:00",18.7825847727233,"Approved","OW405"
"2023-05-18 18:00",18.7815821459217,"Approved","OW405"
"2023-05-18 19:00",18.7805795191202,"Approved","OW405"
"2023-05-18 20:00",18.7795768923187,"Approved","OW405"
"2023-05-18 21:00",18.7795742655171,"Approved","OW405"
"2023-05-18 22:00",18.7785716387156,"Approved","OW405"
"2023-05-18 23:00",18.779569011914,"Approved","OW405"
"2023-05-19 00:00",18.7795663851125,"Approved","OW405"
"2023-05-19 01:00",18.7805637583109,"Approved","OW405"
"2023-05-19 02:00",18.7815611315094,"Approved","OW405"
"2023-05-19 03:00",18.7835585047078,"Approved","OW405"
"2023-05-19 04:00",18.7845558779063,"Approved","OW405"
"2023-05-19 05:00",18.7855532511047,"Approved","OW405"
"2023-05-19 06:00",18.7855506243032,"Approved","OW405"
"2023-05-19 07:00",18.7865479975016,"Approved","OW405"
"2023-05-19 08:00",18.7875453707001,"Approved","OW405"
"2023-05-19 09:00",18.7875427438985,"Approved","OW405"
"2023-05-19 10:00",18.788540117097,"Approved","OW405"
"2023-05-19 11:00",18.7885374902954,"Approved","OW405"
"2023-05-19 12:00",18.7885348634939,"Approved","OW405"
"2023-05-19 13:00",18.7885322366923,"Approved","OW405"
"2023-05-19 14:00",18.7895296098908,"Approved","OW405"
"2023-05-19 15:00",18.7875269830892,"Approved","OW405"
"2023-05-19 16:00",18.7855243562877,"Approved","OW405"
"2023-05-19 17:00",18.7825217294861,"Approved","OW405"
"2023-05-19 18:00",18.7805191026846,"Approved","OW405"
"2023-05-19 19:00",18.778516475883,"Approved","OW405"
"2023-05-19 20:00",18.7765138490815,"Approved","OW405"
"2023-05-19 21:00",18.7745112222799,"Approved","OW405"
"2023-05-19 22:00",18.7735085954784,"Approved","OW405"
"2023-05-19 23:00",18.7755059686768,"Approved","OW405"
"2023-05-20 00:00",18.7755033418753,"Approved","OW405"
"2023-05-20 01:00",18.7765007150738,"Approved","OW405"
"2023-05-20 02:00",18.7774980882722,"Approved","OW405"
"2023-05-20 03:00",18.7794954614707,"Approved","OW405"
"2023-05-20 04:00",18.7814928346691,"Approved","OW405"
"2023-05-20 05:00",18.7834902078676,"Approved","OW405"
"2023-05-20 06:00",18.784487581066,"Approved","OW405"
"2023-05-20 07:00",18.7854849542645,"Approved","OW405"
"2023-05-20 08:00",18.7854823274629,"Approved","OW405"
"2023-05-20 09:00",18.7854797006614,"Approved","OW405"
"2023-05-20 10:00",18.7864770738598,"Approved","OW405"
"2023-05-20 11:00",18.7864744470583,"Approved","OW405"
"2023-05-20 12:00",18.7864718202567,"Approved","OW405"
"2023-05-20 13:00",18.7864691934552,"Approved","OW405"
"2023-05-20 14:00",18.7854665666536,"Approved","OW405"
"2023-05-20 15:00",18.7844639398521,"Approved","OW405"
"2023-05-20 16:00",18.7824613130505,"Approved","OW405"
"2023-05-20 17:00",18.780458686249,"Approved","OW405"
"2023-05-20 18:00",18.7794560594474,"Approved","OW405"
"2023-05-20 19:00",18.7794534326459,"Approved","OW405"
"2023-05-20 20:00",18.7774508058443,"Approved","OW405"
"2023-05-20 21:00",18.7764481790428,"Approved","OW405"
"2023-05-20 22:00",18.7744455522412,"Approved","OW405"
"2023-05-20 23:00",18.7734429254397,"Approved","OW405"
"2023-05-21 00:00",18.7764402986381,"Approved","OW405"
"2023-05-21 01:00",18.7794376718366,"Approved","OW405"
"2023-05-21 02:00",18.7814350450351,"Approved","OW405"
"2023-05-21 03:00",18.7814324182335,"Approved","OW405"
"2023-05-21 04:00",18.783429791432,"Approved","OW405"
"2023-05-21 05:00",18.7834271646304,"Approved","OW405"
"2023-05-21 06:00",18.7844245378289,"Approved","OW405"
"2023-05-21 07:00",18.7844219110273,"Approved","OW405"
"2023-05-21 08:00",18.7844192842258,"Approved","OW405"
"2023-05-21 09:00",18.7844166574242,"Approved","OW405"
"2023-05-21 10:00",18.7844140306227,"Approved","OW405"
"2023-05-21 11:00",18.7844114038211,"Approved","OW405"
"2023-05-21 12:00",18.7844087770196,"Approved","OW405"
"2023-05-21 13:00",18.785406150218,"Approved","OW405"
"2023-05-21 14:00",18.7844035234165,"Approved","OW405"
"2023-05-21 15:00",18.7844008966149,"Approved","OW405"
"2023-05-21 16:00",18.7823982698134,"Approved","OW405"
"2023-05-21 17:00",18.7823956430118,"Approved","OW405"
"2023-05-21 18:00",18.7813930162103,"Approved","OW405"
"2023-05-21 19:00",18.7793903894087,"Approved","OW405"
"2023-05-21 20:00",18.7773877626072,"Approved","OW405"
"2023-05-21 21:00",18.7783851358056,"Approved","OW405"
"2023-05-21 22:00",18.7793825090041,"Approved","OW405"
"2023-05-21 23:00",18.7813798822025,"Approved","OW405"
"2023-05-22 00:00",18.782377255401,"Approved","OW405"
"2023-05-22 01:00",18.7823746285994,"Approved","OW405"
"2023-05-22 02:00",18.7823720017979,"Approved","OW405"
"2023-05-22 03:00",18.7823693749964,"Approved","OW405"
"2023-05-22 04:00",18.7823667481948,"Approved","OW405"
"2023-05-22 05:00",18.7823641213933,"Approved","OW405"
"2023-05-22 06:00",18.7823614945917,"Approved","OW405"
"2023-05-22 07:00",18.7833588677902,"Approved","OW405"
"2023-05-22 08:00",18.7833562409886,"Approved","OW405"
"2023-05-22 09:00",18.7833536141871,"Approved","OW405"
"2023-05-22 10:00",18.7833509873855,"Approved","OW405"
"2023-05-22 11:00",18.783348360584,"Approved","OW405"
"2023-05-22 12:00",18.7833457337824,"Approved","OW405"
"2023-05-22 13:00",18.7833431069809,"Approved","OW405"
"2023-05-22 14:00",18.7833404801793,"Approved","OW405"
"2023-05-22 15:00",18.7843378533778,"Approved","OW405"
"2023-05-22 16:00",18.7833352265762,"Approved","OW405"
"2023-05-22 17:00",18.7833325997747,"Approved","OW405"
"2023-05-22 18:00",18.7833299729731,"Approved","OW405"
"2023-05-22 19:00",18.7823273461716,"Approved","OW405"
"2023-05-22 20:00",18.78132471937,"Approved","OW405"
"2023-05-22 21:00",18.7813220925685,"Approved","OW405"
"2023-05-22 22:00",18.7823194657669,"Approved","OW405"
"2023-05-22 23:00",18.7823168389654,"Approved","OW405"
"2023-05-23 00:00",18.7833142121638,"Approved","OW405"
"2023-05-23 01:00",18.7833115853623,"Approved","OW405"
"2023-05-23 02:00",18.7833089585607,"Approved","OW405"
"2023-05-23 03:00",18.7833063317592,"Approved","OW405"
"2023-05-23 04:00",18.7833037049576,"Approved","OW405"
"2023-05-23 05:00",18.7833010781561,"Approved","OW405"
"2023-05-23 06:00",18.7842984513546,"Approved","OW405"
"2023-05-23 07:00",18.784295824553,"Approved","OW405"
"2023-05-23 08:00",18.7842931977515,"Approved","OW405"
"2023-05-23 09:00",18.7842905709499,"Approved","OW405"
"2023-05-23 10:00",18.7842879441484,"Approved","OW405"
"2023-05-23 11:00",18.7842853173468,"Approved","OW405"
"2023-05-23 12:00",18.7842826905453,"Approved","OW405"
"2023-05-23 13:00",18.7842800637437,"Approved","OW405"
"2023-05-23 14:00",18.7842774369422,"Approved","OW405"
"2023-05-23 15:00",18.7842748101406,"Approved","OW405"
"2023-05-23 16:00",18.7822721833391,"Approved","OW405"
"2023-05-23 17:00",18.7802695565375,"Approved","OW405"
"2023-05-23 18:00",18.778266929736,"Approved","OW405"
"2023-05-23 19:00",18.7782643029344,"Approved","OW405"